User: anonymous   Login
Location: Spruce Knob
(38.6995°N, 79.5330°W)
Time: 15:38:42
(UTC-05:00)
Language:

Courier 1B - Orbit

View from above orbital plane
View from above orbital plane
View from above satellite
View from above satellite

Ground track
Ground track

The orbit data is extracted from the following two-line orbital elements,

1    58U 60013A   22025.39265113  .00000087  00000-0 -11480-5 0  9999
2    58  28.3302 356.9222 0164967 248.5672 109.7203 13.46330236 18304
Epoch (UTC): 25 January 2022 09:25:25
Eccentricity: 0.0164967
inclination: 28.3302°
perigee height: 962 km
apogee height: 1209 km
right ascension of ascending node: 356.9222°
argument of perigee: 248.5672°
revolutions per day: 13.46330236
mean anomaly at epoch: 109.7203°
orbit number at epoch: 1830

The dashed part of the orbit path shows where the satellite is in the earth's shadow,  

DLR